Вернуться в каталог

STARLINK-32829

АктивенСвязьVLEO
NORAD 63049·PAYLOAD·🇺🇸 United States

Запущен Feb 18, 2025 с Cape Canaveral Space Force Station

Loading…

Ближайшие Пролёты (ближайшие 24 часа)

TLE

СвежийSource: CelesTrak SupGP

Эпоха: Sep 14, 2026, 20:38 UTC

1 63049C 25034W   26257.86020833 -.00049547  00000+0 -14641-2 0  2573
2 63049  53.1576 108.4012 0001255  83.2480 278.5462 15.34411339    14

Отслеживайте STARLINK-32829 в реальном времени с AllMySat

Download on the App Store